This is the latest recevied weather packets stored in our database for station/object KBTL-WX. If no packets are shown the sender has not sent any weather packets the latest 10 day(s).
| Time | Temp. | Humidity | Pressure | Rain* | Wind** | Luminosity | Snow |
|---|---|---|---|---|---|---|---|
| 1777913118 | 21.11° C | 36% | 971.5 hPa | 0 mm | - | - | - |
| 1777912229 | 20.56° C | 36% | 971.5 hPa | 0 mm | - | - | - |
| 1777911318 | 20.56° C | 36% | 971.5 hPa | 0 mm | - | - | - |
| 1777910441 | 20.56° C | 36% | 971.5 hPa | 0 mm | - | - | - |
| 1777909518 | 20° C | 50% | 971.8 hPa | 0 mm | - | - | - |
| 1777908635 | 18.89° C | 50% | 971.7 hPa | 0 mm | - | - | - |
| 1777907719 | 18.33° C | 50% | 971.7 hPa | 0 mm | - | - | - |
| 1777906843 | 17.78° C | 50% | 971.7 hPa | 0 mm | - | - | - |
| 1777905918 | 17.22° C | 63% | 971.8 hPa | 0 mm | - | - | - |
| 1777905033 | 16.67° C | 61% | 972.3 hPa | 0 mm | - | - | - |
| 1777904114 | 15.56° C | 61% | 972.4 hPa | 0 mm | - | - | - |
| 1777903243 | 15° C | 61% | 971.7 hPa | 0 mm | - | - | - |
| 1777902318 | 14.44° C | 65% | 971.5 hPa | 0 mm | - | - | - |
| 1777901435 | 13.89° C | 65% | 971.5 hPa | 0 mm | - | - | - |
| 1777900518 | 12.78° C | 65% | 971.5 hPa | 0 mm | - | - | - |
| 1777899642 | 12.22° C | 67% | 971.5 hPa | 0 mm | - | - | - |
| 1777898718 | 11.67° C | 73% | 972.1 hPa | 0 mm | - | - | - |
| 1777897835 | 11.11° C | 73% | 972.1 hPa | 0 mm | - | - | - |
| 1777896918 | 10.56° C | 73% | 972.1 hPa | 0 mm | - | - | - |
| 1777896042 | 10° C | 73% | 972.1 hPa | 0 mm | - | - | - |
| 1777895118 | 8.89° C | 77% | 970.6 hPa | 0 mm | - | - | - |
| 1777894232 | 8.89° C | 80% | 971.3 hPa | 0 mm | - | - | - |
| 1777893318 | 8.33° C | 80% | 971.3 hPa | 0 mm | - | - | - |
| 1777892438 | 7.78° C | 80% | 971.3 hPa | 0 mm | - | - | - |
| 1777891518 | 7.78° C | 76% | 971.3 hPa | 0 mm | - | - | - |
* Rain latest hour (hover to see other rain measurements)
** Current wind speed in m/s (hover to see current wind gust speed)